TimeEDT,TemperatureF,Dew PointF,Humidity,Sea Level PressureIn,VisibilityMPH,Wind Direction,Wind SpeedMPH,Gust SpeedMPH,PrecipitationIn,Events,Conditions,WindDirDegrees,DateUTC
12:00 AM,78.8,73.4,83,29.92,6.2,NE,3.5,-,N/A,,Partly Cloudy,50,2013-09-08 04:00:00
1:00 AM,78.8,73.4,83,29.92,6.2,NE,2.3,-,N/A,,Partly Cloudy,50,2013-09-08 05:00:00
2:00 AM,81,76,82,29.91,8,NE,2.3,,,,Scattered Clouds,40,2013-09-08 06:00:00
2:00 AM,80.6,77.0,89,29.91,6.2,NE,2.3,-,N/A,,Partly Cloudy,40,2013-09-08 06:00:00
3:00 AM,78.8,75.2,89,29.89,6.2,Calm,Calm,-,N/A,,Scattered Clouds,0,2013-09-08 07:00:00
4:00 AM,78.8,77.0,94,29.89,6.2,NE,2.3,-,N/A,,Partly Cloudy,40,2013-09-08 08:00:00
5:00 AM,79,77,90,29.89,8,Calm,Calm,,,,Scattered Clouds,,2013-09-08 09:00:00
5:00 AM,78.8,77.0,94,29.89,6.2,Calm,Calm,-,N/A,,Partly Cloudy,0,2013-09-08 09:00:00
6:00 AM,77.0,75.2,94,29.90,6.2,Calm,Calm,-,N/A,,Partly Cloudy,0,2013-09-08 10:00:00
7:00 AM,78.8,73.4,83,29.91,6.2,Calm,Calm,-,N/A,,Partly Cloudy,0,2013-09-08 11:00:00
8:00 AM,79,76,87,29.92,9,Calm,Calm,,,,Partly Cloudy,,2013-09-08 12:00:00
8:00 AM,78.8,75.2,89,29.92,6.2,Calm,Calm,-,N/A,,Scattered Clouds,0,2013-09-08 12:00:00
9:00 AM,78.8,73.4,83,29.93,6.2,Calm,Calm,-,N/A,,Scattered Clouds,0,2013-09-08 13:00:00
10:00 AM,86.0,75.2,70,29.93,6.2,East,4.6,-,N/A,,Partly Cloudy,100,2013-09-08 14:00:00
11:00 AM,88,77,62,29.94,9,ESE,4.6,,,,Partly Cloudy,120,2013-09-08 15:00:00
11:00 AM,87.8,77.0,70,29.93,6.2,ESE,4.6,-,N/A,,Scattered Clouds,120,2013-09-08 15:00:00
12:00 PM,80.6,71.6,74,29.93,6.2,Variable,2.3,-,N/A,Thunderstorm,Thunderstorm,0,2013-09-08 16:00:00
1:00 PM,78.8,73.4,83,2.99,6.2,East,9.2,-,N/A,Rain,Light Rain,90,2013-09-08 17:00:00
2:00 PM,82.4,73.4,74,29.92,6.2,Variable,2.3,-,N/A,,Mostly Cloudy,0,2013-09-08 18:00:00
3:00 PM,-9999,75.2,N/A,29.90,6.2,NNE,3.5,-,N/A,,Mostly Cloudy,20,2013-09-08 19:00:00
4:00 PM,84.2,73.4,70,29.88,6.2,North,3.5,-,N/A,,Mostly Cloudy,350,2013-09-08 20:00:00
6:00 PM,86.0,77.0,74,29.88,6.2,ENE,5.8,-,N/A,,Mostly Cloudy,60,2013-09-08 22:00:00
7:00 PM,86.0,77.0,74,29.88,6.2,North,3.5,-,N/A,,Scattered Clouds,10,2013-09-08 23:00:00
8:00 PM,82,77,82,29.91,9,NNE,3.5,,,,Partly Cloudy,20,2013-09-09 00:00:00
8:00 PM,82.4,77.0,84,29.90,6.2,NNE,3.5,-,N/A,,Scattered Clouds,20,2013-09-09 00:00:00
9:00 PM,80.6,73.4,79,29.93,6.2,Variable,1.2,-,N/A,,Scattered Clouds,0,2013-09-09 01:00:00
10:00 PM,80.6,73.4,79,29.95,6.2,Variable,1.2,-,N/A,,Partly Cloudy,0,2013-09-09 02:00:00
11:00 PM,82.4,77.0,84,29.95,6.2,Calm,Calm,-,N/A,,Partly Cloudy,0,2013-09-09 03:00:00